Погода в Шердино

Россия / Республика Коми     63°28′20″N   56°27′09″E
темп.,
°C
ветер,
м/с
пор.,
м/с
влажн.,
%
обл.,
%
осадки,
мм/ч
давл.,
гПа
погр.,
м
22 апреля, чт
чт2200:00+4ююв41384100 0.0 1024345
03:00+3ююв41383100 0.0 1024378
06:00+5ююв5147899 0.0 1022523
09:00+8ююв61466100 0.0 1020998
12:00+9ю61763100 0.0 10201790
15:00+5ю61393100 0.4 10201173
18:00+4ю51297100 0.2 1020871
21:00+4ююз41095100 0.3 1021943
23 апреля, пт
пт2300:00+4ю41092100 0.1 1021694
03:00+4ю41090100 0.1 1021686
06:00+4ю51190100 0.1 1021960
09:00+5ю51091100 0.1 1021769
12:00+6ю4981100 0.0 1022726
15:00+7ююз377854 0.0 1023495
18:00+7ююз2679100 0.2 1023145
21:00+6ююз3783100 0.2 1025146
24 апреля, сб
сб2400:00+4ююз239199 0.0 102555
03:00+5ююз2290100 0.0 102626
06:00+5ю2389100 0.0 102690
09:00+9ююв237293 0.0 1026373
12:00+12юв125438 0.0 10251063
15:00+13в344779 0.0 10231713
18:00+10в266299 0.0 1022169
21:00+8в2870100 0.0 1022189
25 апреля, вс
вс2500:00+7вюв41266100 0.0 1021507
03:00+6вюв3117194 0.0 1020447
06:00+7вюв4116639 0.0 10191141
09:00+10вюв61154100 0.0 10171662
12:00+11вюв61253100 0.1 10151759
15:00+11юв51255100 0.5 10141796
18:00+8юв51167100 0.3 10131445
21:00+6вюв5117287 0.3 1011930
26 апреля, пн
пн2600:00+6вюв51177100 0.0 1009971
03:00+4вюв41093100 0.1 1008834
06:00+4юв41096100 0.4 1006861
09:00+6ю5773100 0.8 10061100
12:00+7ю475794 0.3 10061537
15:00+8ююз484778 0.7 10061865
18:00+6ююз486157 0.1 10061134
21:00+4ю4117233 0.1 1005692